User: anonymous   Login
Location: ????????
(54.9045°N, 39.1041°E)
Time: 23:40:11
(UTC+00:00)
Language:

Cosmos 1943 Rocket - Orbit

View from above orbital plane
View from above orbital plane
View from above satellite
View from above satellite

Ground track
Ground track

The orbit data is extracted from the following two-line orbital elements,

1 19120U 88039B   24175.57469168 -.00000048  00000-0 -60352-7 0  9993
2 19120  71.0155 308.0623 0023341 221.6844 138.2503 14.19418492869813
Epoch (UTC): 23 June 2024 13:47:33
Eccentricity: 0.0023341
inclination: 71.0155°
perigee height: 810 km
apogee height: 844 km
right ascension of ascending node: 308.0623°
argument of perigee: 221.6844°
revolutions per day: 14.19418492
mean anomaly at epoch: 138.2503°
orbit number at epoch: 86981

The dashed part of the orbit path shows where the satellite is in the earth's shadow,  

DLR